Tracking 19709 objects as of 18-Jun-2019
HD Live streaming from Space Station
objects crossing your sky now

TRANSIT 4B

Track TRANSIT 4B now!
10-day predictions
TRANSIT 4B is classified as:


NORAD ID: 202
Int'l Code: 1961-031A
Perigee: 955.1 km
Apogee: 1,105.0 km
Inclination: 32.4 °
Period: 105.6 minutes
Semi major axis: 7401 km
RCS: 2.1391 m2 (large)
Launch date: November 15, 1961
Source: United States (US)
Launch site: AIR FORCE EASTERN TEST RANGE (AFETR)
aabbcc
Your satellite tracking list
Your tracking list is empty




NASA's NSSDC Master Catalog

Two Line Element Set (TLE):
1   202U 61031A   19169.54552829  .00000015  00000-0 -10583-4 0  9999
2   202  32.4364 199.4987 0101273 247.0019 111.9892 13.63526228872031
Source of the keplerian elements: AFSPC